Location: Boulin
(43.2500°N, 0.1333°E)
Time: 16:00:24
(UTC+00:00)

Cosmos 2297 Rocket - Pass Details

Date: 11 December 2025
Orbit: 837 x 844 km, 71.0° (Epoch: 19 January)

Event Time Altitude Azimuth Distance (km) Brightness Sun altitude
Rises 17:46:02 0° 328° (NNW) 3,410 5.5 -14.4°
Reaches altitude 10° 17:48:36 10° 322° (NW) 2,471 4.9 -14.8°
Maximum altitude 17:53:52 41° 254° (WSW) 1,200 3.6 -15.7°
Drops below altitude 10° 17:59:07 10° 185° (S) 2,455 4.9 -16.6°
Sets 18:01:40 0° 178° (S) 3,385 5.5 -17.1°
